Terminal Aerodrome Forecast
Issued by NWS

Home | Current Version | Previous Version | Text Only | Print | Product List | Glossary On
Versions: 1 2 3 4 5 6 7 8 9 10 11 12 13 14 15 16 17 18 19 20 21 22 23 24 25 26 27 28 29 30 31 32 33 34 35 36 37 38 39 40 41 42 43 44 45 46 47 48 49 50
000
FTUS46 KPQR 010811 AAA
TAFONP
TAF AMD
KONP 010811Z 0108/0206 00000KT P6SM SCT080
     FM011100 00000KT 2SM BR OVC004
     FM011900 33008KT P6SM SCT250
     FM020300 02003KT P6SM BKN250=

USA.gov is the U.S. government's official web portal to all federal, state and local government web resources and services.